Regional Weather Roundup
Issued by NWS

Home | Current Version | Previous Version | Text Only | Print | Product List | Glossary On
Versions: 1 2 3 4 5 6 7 8 9 10 11 12 13 14 15 16 17 18 19 20 21 22 23 24 25 26 27 28 29 30 31 32 33 34 35 36 37 38 39 40 41 42 43 44 45 46 47 48 49 50
000
ASUS43 KTOP 280108
RWRKS

WEATHER ROUNDUP FOR KANSAS
NATIONAL WEATHER SERVICE GOODLAND KS
800 PM CDT WED JUL 27 2016

NOTE:  "FAIR" INDICATES FEW OR NO CLOUDS BELOW 12,000 FEET WITH NO
SIGNIFICANT WEATHER AND/OR OBSTRUCTIONS TO VISIBILITY.

KSZ001>006-013>018-027>032-041>047-280200-
NORTHWEST KANSAS

CITY           SKY/WX    TMP DP  RH WIND       PRES   REMARKS
GOODLAND       SUNNY     87  60  40 SE12      30.03F
HAYS           CLEAR     90  66  45 SE7       29.95S
HILL CITY      CLEAR     87  68  52 E7        29.98R
RUSSELL        CLEAR     89  66  46 E6        29.94R
$$

KSZ061>065-074>080-084>089-280200-
SOUTHWEST KANSAS

CITY           SKY/WX    TMP DP  RH WIND       PRES   REMARKS
DODGE CITY     CLOUDY    81  67  62 CALM      29.98F
ELKHART          N/A     68  60  75 MISG        N/A
GARDEN CITY    CLOUDY    82  67  60 SE9       30.00R
GREAT BEND     CLOUDY    88  66  48 CALM      29.94S
LIBERAL        CLOUDY    73  64  73 SW8       30.02F
PRATT          PTCLDY    85  64  49 E6        29.96R
$$

KSZ066>073-081>083-090>101-280200-
SOUTHEAST KANSAS

CITY           SKY/WX    TMP DP  RH WIND       PRES   REMARKS
CHANUTE        CLOUDY    86  76  71 N3        29.91S HX  96
COFFEYVILLE    PTCLDY    88  74  63 E5        29.90F HX  96
HUTCHINSON     CLEAR     87  72  60 NE3       29.94R
MEDICINE LODGE   N/A     89  62  40 E6        29.92F
NEWTON         CLEAR     84  74  71 MISG      29.95R
PARSONS        CLEAR     84  77  79 CALM      29.92S
WICHITA INTL   PTCLDY    88  68  51 E6        29.92S
WICHITA JABRA  CLEAR     86  73  65 E5        29.93S
WICHITA MCCONL CLEAR     89  70  54 E5        29.93R
WINFIELD       CLEAR     89  72  56 E7        29.93R HX  96
$$

KSZ007>012-019>026-033>040-048>060-102>105-280200-
NORTHEAST KANSAS

CITY           SKY/WX    TMP DP  RH WIND       PRES   REMARKS
CONCORDIA      CLEAR     86  70  58 E3        29.95R
EMPORIA        CLEAR     86  73  65 E3        29.92S
LAWRENCE       PTCLDY    85  76  74 CALM      29.91S HAZE
MANHATTAN      CLEAR     86  70  58 CALM      29.92S
MARYSVILLE     CLEAR     86  68  54 N3        29.94R
OLATHE IND       N/A     85  70  60 NW6       29.92F
OLATHE EXE     PTCLDY    86  67  52 NW5       29.92S
SALINA         CLEAR     90  69  50 NE7       29.93S
TOPEKA BILLARD CLEAR     86  71  60 E3        29.91S
TOPEKA FORBES  CLEAR     88  72  58 SE3       29.92S
$$



USA.gov is the U.S. government's official web portal to all federal, state and local government web resources and services.